This is the latest recevied weather packets stored in our database for station/object K1WJY. If no packets are shown the sender has not sent any weather packets the latest 10 day(s).
| Time | Temp. | Humidity | Pressure | Rain* | Wind** | Luminosity | Snow |
|---|---|---|---|---|---|---|---|
| 1778008522 | 16.11° C | 77% | 1009.3 hPa | 0 mm | - | 507 W/m² | - |
| 1778008220 | 16.11° C | 77% | 1009.3 hPa | 0 mm | - | 546 W/m² | - |
| 1778007915 | 16.11° C | 78% | 1009.3 hPa | 0 mm | - | 530 W/m² | - |
| 1778007611 | 16.11° C | 77% | 1009.2 hPa | 0 mm | - | 533 W/m² | - |
| 1778007308 | 16.11° C | 77% | 1009.4 hPa | 0 mm | - | 544 W/m² | - |
| 1778007004 | 17.22° C | 75% | 1009.5 hPa | 0 mm | - | 558 W/m² | - |
| 1778006701 | 17.22° C | 74% | 1009.3 hPa | 0 mm | - | 564 W/m² | - |
| 1778006397 | 16.67° C | 76% | 1009.1 hPa | 0 mm | - | 583 W/m² | - |
| 1778006095 | 16.67° C | 76% | 1009.3 hPa | 0 mm | - | 588 W/m² | - |
| 1778005791 | 16.11° C | 77% | 1009.5 hPa | 0 mm | - | 583 W/m² | - |
| 1778005488 | 16.67° C | 76% | 1009.4 hPa | 0 mm | - | 607 W/m² | - |
| 1778005184 | 16.11° C | 77% | 1009.6 hPa | 0 mm | - | 610 W/m² | - |
| 1778004882 | 16.11° C | 76% | 1009.8 hPa | 0 mm | - | 641 W/m² | - |
| 1778004579 | 16.11° C | 77% | 1009.6 hPa | 0 mm | - | 648 W/m² | - |
| 1778004275 | 15.56° C | 79% | 1009.8 hPa | 0 mm | - | 671 W/m² | - |
| 1778003972 | 15° C | 79% | 1009.9 hPa | 0 mm | - | 647 W/m² | - |
| 1778003668 | 14.44° C | 81% | 1010.2 hPa | 0 mm | - | 622 W/m² | - |
| 1778003364 | 14.44° C | 82% | 1010 hPa | 0 mm | - | 658 W/m² | - |
| 1778003062 | 13.89° C | 83% | 1010.3 hPa | 0 mm | - | 649 W/m² | - |
| 1778002758 | 14.44° C | 82% | 1010.4 hPa | 0 mm | - | 662 W/m² | - |
| 1778002454 | 13.89° C | 84% | 1010.4 hPa | 0 mm | - | 670 W/m² | - |
| 1778002152 | 14.44° C | 83% | 1010.4 hPa | 0 mm | - | 669 W/m² | - |
| 1778001850 | 14.44° C | 82% | 1010.6 hPa | 0 mm | - | 698 W/m² | - |
| 1778001549 | 13.89° C | 82% | 1010.6 hPa | 0 mm | - | 754 W/m² | - |
| 1778001246 | 13.89° C | 82% | 1010.6 hPa | 0 mm | - | 916 W/m² | - |
* Rain latest hour (hover to see other rain measurements)
** Current wind speed in m/s (hover to see current wind gust speed)